sat.trackr.live / text

‹ back to catalog

YAOGAN-25 01A

NORAD 40338 · 2014-080A

PAYLOAD ACTIVE UNKNOWN

§ Identity

Operator
Country
PRC
Launch date
2014-12-10
Launch site
JSC
Launch vehicle
Mass (kg)
RCS (m²)
2.33

External: N2YO · Heavens-Above · Gunter

§ Orbital elements

Epoch: 2026-09-13T05:01:35.235840Z

Period
107.03 min
Inclination
63.3847°
Eccentricity
0.0374417
Mean motion
13.45418847 rev/d
Perigee alt
809.6 km
Apogee alt
1,368.7 km
Semi-major
7,467.3 km
B*
5.6156e-5
RAAN
83.9723°
Arg perigee
9.6184°
Mean anomaly
351.1756°
Rev number
57,750

§ Raw data

YAOGAN-25 01A1 40338U 14080A   26256.20943560 -.00000040  00000+0  56156-4 0  99922 40338  63.3847  83.9723 0374417   9.6184 351.1756 13.45418847577504

JSON: /api/v1/satellites/40338 · /tle

For live sub-satellite position, see the globe view (requires WebGL).

§ Visibility from observer

Set your observer location to see the next 7 days of passes ≥ 10°. The values pass through the URL so the page stays shareable.

No JS? Fill the form by hand. The geolocation button needs JavaScript.